Location: Wroclaw
(51.1000°N, 17.0330°E)
Time: 14:43:43
(UTC+01:00)

Envisat - Visible Passes

Search period start: 08 December 2022 00:00
Search period end: 18 December 2022 00:00
Orbit: 763 x 765 km, 98.2° (Epoch: 08 December)

Date Brightness Start Highest point End Pass type
(mag) Time Alt. Az. Time Alt. Az. Time Alt. Az.
08 Dec 5.0 03:53:50 10° NNE 03:55:39 22° NNE 03:55:39 22° NNE visible
08 Dec 4.3 05:33:22 10° N 05:35:50 22° NNW 05:35:50 22° NNW visible
08 Dec 6.1 16:56:54 10° W 16:58:23 11° W 16:59:51 10° WNW visible
09 Dec 5.6 03:17:15 10° NE 03:18:06 14° NE 03:18:06 14° NE visible
09 Dec 4.3 04:55:57 10° N 04:58:16 26° N 04:58:16 26° N visible
09 Dec 4.9 06:38:09 10° NW 06:38:26 10° NW 06:38:26 10° NW visible
09 Dec 5.6 16:16:54 10° SW 16:20:52 23° W 16:24:51 10° NW visible
10 Dec 4.7 04:18:49 10° NNE 04:20:43 23° NNE 04:20:43 23° NNE visible
10 Dec 4.6 05:58:55 10° NNW 06:00:53 16° NW 06:00:53 16° NW visible
11 Dec 5.3 03:41:57 10° NNE 03:43:10 17° NNE 03:43:10 17° NNE visible
11 Dec 4.4 05:21:14 10° N 05:23:20 22° NNW 05:23:20 22° NNW visible
11 Dec 5.9 16:43:34 10° WSW 16:46:14 14° W 16:48:54 10° NW visible
12 Dec 5.9 03:05:32 10° NE 03:05:37 10° NE 03:05:37 10° NE visible
12 Dec 4.6 04:43:55 10° N 04:45:48 23° N 04:45:48 23° N visible
12 Dec 4.8 06:24:56 10° NNW 06:25:58 12° NW 06:25:58 12° NW visible
13 Dec 5.0 04:06:51 10° NNE 04:08:16 19° NNE 04:08:16 19° NNE visible
13 Dec 4.6 05:46:41 10° N 05:48:27 17° NNW 05:48:27 17° NNW visible
14 Dec 5.6 03:30:06 10° NNE 03:30:44 13° NNE 03:30:44 13° NNE visible
14 Dec 4.6 05:09:08 10° N 05:10:55 21° N 05:10:55 21° N visible
14 Dec 5.7 16:30:43 10° SW 16:34:05 18° W 16:37:29 10° NW visible
15 Dec 4.9 04:31:54 10° NNE 04:33:24 20° N 04:33:24 20° N visible
15 Dec 4.8 06:12:25 10° NNW 06:13:34 13° NNW 06:13:34 13° NNW visible
16 Dec 5.3 03:54:56 10° NNE 03:55:53 16° NNE 03:55:53 16° NNE visible
16 Dec 4.7 05:34:30 10° N 05:36:04 17° NNW 05:36:04 17° NNW visible
16 Dec 6.2 16:58:24 10° W 16:59:31 11° W 17:00:37 10° WNW visible
17 Dec 5.9 03:18:18 10° NNE 03:18:22 10° NE 03:18:22 10° NE visible
17 Dec 4.8 04:57:03 10° N 04:58:33 19° N 04:58:33 19° N visible
